AO-07
1 07530U 74089B 26133.26012485 -.00000031 00000-0 98589-4 0 9994
2 07530 101.9917 146.1410 0012149 196.0376 174.7655 12.53697478356147


Ligne 0
Le nom commun de l'objetAO-07
Ligne 1
Numéro de catalogue satellite07530U
Désignateur international74089B
Année de lancement74
Numéro de lancement dans l'année089
Object du lancementB
Époque (année)26
Époque (Jour de l'année en UTC)133.26012485
1ère dérivée du mouvement moyen-.00000031
2ème dérivée du mouvement moyen 00000-0
B * Terme de glissement 98589-4
Type de jeu d'éléments0
Numéro d'élément 999
Ligne 2
Numéro de catalogue satellite07530
Inclinaison de l'orbite (degrés)101.9917
Ascension droite du nœud ascendant (degrés)146.1410
Excentricité0012149
Argument du Périgée (degrés)196.0376
Anomalie moyenne (degrés)174.7655
Mouvement moyen (révolutions / jour)12.53697478
Numéro de révolution à l'époque35614
Valeurs déduites
Période Orbitale (en minutes)114.9 min.
Demi-grand axe (en kilomètres)7827.2 Km
Altitude à l‘Apogée (en kilomètres)1465.7 Km
Altitude au Périgée (en kilomètres)1446.7 Km

* Sources des TLE's : Celestrack